[[{"header":{"parameterUnit":"m.s-1","parameterCategory":1,"la1":30.2991,"la2":30.254,"lo1":-89.0895,"lo2":-89.0444,"dy":0.0017,"dx":0.0017,"nx":28,"ny":28,"refTime":"2023-04-28T21:00:00:Z","depth":0,"parameterNumber":2,"parameterNumberName":"U-component_of_WINDS"},"data":[0,0,0,0,0,0,0,0,0,0,0,0,0,0,0,0,0,0,0,0,0,0,0,0,0,0,0,0,0,0,0,0,0,0,0,0,0,0,0,0,0,0,0,0,0,0,0,0,0,0,0,0,0,0,0,0,0,0,5.8777,5.8775,0,5.8674,5.8673,5.8672,5.8485,5.8481,5.8478,5.8475,5.8372,5.8372,5.8373,0,0,0,0,0,0,0,0,0,0,0,0,0,5.8814,5.8814,5.8777,5.8775,5.8774,5.8674,5.8673,5.8671,5.8486,5.8481,5.8477,5.8473,5.8372,5.8372,5.8373,0,0,0,0,0,0,0,0,0,0,0,0,0,5.8763,5.8814,5.8777,5.8669,5.8659,5.8674,5.8673,5.8671,5.8487,5.8481,5.8476,5.8471,5.8371,5.8372,5.8373,5.8486,0,0,5.8376,5.8376,0,0,0,0,0,0,0,0,5.8766,5.8762,5.8686,5.8677,5.8665,5.8587,5.8648,5.8609,5.8488,5.8552,5.8474,5.8468,5.8448,5.8442,5.8435,5.8481,5.8477,5.8376,5.8376,5.8377,5.8377,0,0,0,0,0,0,0,5.877,5.8766,5.8736,5.8686,5.8672,5.8627,5.8614,5.864,5.8531,5.8546,5.8532,5.8523,5.8441,5.8434,5.8431,5.8475,5.8376,5.8377,5.8377,5.8378,5.8608,5.8613,0,0,0,0,0,0,5.8789,5.877,5.8739,5.8733,5.8703,5.8631,5.8616,5.8617,5.8531,5.8512,5.8527,5.8514,5.8435,5.843,5.8427,5.8552,5.8377,5.8378,5.8378,5.8602,5.8609,5.8615,0,0,0,0,0,0,5.8791,5.8788,5.8743,5.8747,5.8738,5.8636,5.8639,5.8618,5.8611,5.8516,5.8496,5.854,5.8431,5.8425,5.8472,5.8546,5.8378,5.8379,5.8596,5.8604,5.8612,5.8805,0,0,0,0,0,0,5.8793,5.879,5.8831,5.875,5.8739,5.8791,5.8643,5.862,5.8613,5.8595,5.8523,5.8506,5.8426,5.8472,5.8473,5.8544,5.838,5.8589,5.86,5.8609,5.8791,5.8818,5.8842,0,0,0,0,0,5.8794,5.889,5.8834,5.8832,5.8788,5.8795,5.8789,5.8695,5.862,5.8661,5.86,5.8508,5.8538,5.8478,5.8478,5.855,5.8584,5.8597,5.8609,5.878,5.8813,5.8841,0,0,0,0,0,0,5.8984,5.8878,5.8814,5.8887,5.8852,5.8764,5.8813,5.8733,5.8719,5.8703,5.8587,5.8572,5.8634,5.8597,5.8532,5.8654,5.8546,5.8559,5.8676,5.8707,5.8732,5.874,5.838,0,0,0,0,0,5.9034,5.9048,5.8955,5.9028,5.9013,5.8917,5.8916,5.8846,5.8805,5.879,5.8732,5.8697,5.8697,5.87,5.8696,5.8785,5.8766,5.8835,5.886,5.8881,5.8894,5.8937,5.8966,5.8656,5.8656,5.8656,0,0,5.9138,5.9082,5.9098,5.9064,5.9029,5.9046,5.8905,5.893,5.8942,5.8794,5.8834,5.8791,5.8743,5.8812,5.8839,5.8782,5.8975,5.8897,5.8915,5.8916,5.8953,5.8982,5.9008,5.8665,5.8663,5.8662,0,0,5.9336,5.9295,5.935,5.9318,5.9265,5.92,5.9214,5.9139,5.9104,5.9142,5.9031,5.9044,5.9048,5.9018,5.9004,5.9191,5.9106,5.9193,5.9325,5.9368,5.9393,5.9414,5.9479,5.9504,5.9206,5.9206,5.9207,0,5.9472,5.9493,5.939,5.9421,5.9409,5.9275,5.9331,5.9304,5.9254,5.9249,5.9186,5.9188,5.9147,5.9206,5.9251,5.9244,5.9256,5.92,5.9397,5.9417,5.9436,5.9497,5.9522,5.9217,5.9216,5.9215,5.9214,0,5.9662,5.9679,5.973,5.9684,5.9678,5.9722,5.9625,5.9632,5.9563,5.9505,5.9546,5.9491,5.9473,5.9482,5.9415,5.9531,5.9498,5.9419,5.9307,5.9478,5.9533,5.9556,5.9232,5.9229,5.9225,5.9223,0,0,5.9976,5.9872,5.9892,5.9869,5.9802,5.9813,5.985,5.9831,5.9839,5.9809,5.9837,5.9844,5.9769,5.9753,5.9682,5.972,5.987,5.9635,5.9632,5.968,5.9994,6.0053,6.0082,5.9814,5.9818,5.9821,5.9997,0,6.0159,6.0216,6.0124,6.0203,6.0217,6.009,6.0122,6.0085,6.0032,6.0036,5.9977,5.9983,5.9885,5.9874,5.9906,5.9846,5.9932,5.9832,5.9839,5.984,5.9854,6.0111,6.0174,6.0343,6.0018,6.0022,6.0024,0,6.038,6.0359,6.044,6.0366,6.0368,6.0399,6.0374,6.038,6.0335,6.0293,6.0275,6.019,6.0222,6.0115,6.0157,6.0091,6.0088,6.0059,6.0063,6.0059,5.9942,6.0114,6.0395,6.042,6.0058,6.0055,6.0053,0,6.06,6.0593,6.0639,6.0624,6.054,6.0564,6.053,6.0479,6.0474,6.0452,6.0447,6.0431,6.0421,6.041,6.0323,6.0253,6.0375,6.0261,6.0341,6.0343,6.0371,6.0371,6.0655,6.0372,6.0372,6.0371,6.0371,0,6.0813,6.0867,6.0737,6.0766,6.0822,6.0716,6.0775,6.0728,6.0684,6.0701,6.0591,6.061,6.0494,6.05,6.0432,6.0476,6.0473,6.044,6.0421,6.0449,6.0453,6.0445,6.0431,6.0378,6.0376,6.0375,6.0374,0,6.1069,6.0984,6.1026,6.0943,6.0923,6.0968,6.0896,6.092,6.0859,6.0883,6.0882,6.0787,6.0789,6.0701,6.0684,6.0638,6.0711,6.0672,6.0727,6.0714,6.0798,6.0791,6.1087,6.1119,6.0817,6.082,6.0823,0,6.121,6.1248,6.1169,6.1172,6.1144,6.1151,6.1144,6.1041,6.1039,6.0989,6.1019,6.1011,6.0999,6.1007,6.0937,6.0923,6.0882,6.0986,6.0879,6.0906,6.0882,6.0881,6.0883,6.1009,6.1013,6.1016,6.1018,0,6.147,6.1426,6.142,6.14,6.1395,6.1375,6.1347,6.1357,6.1244,6.1247,6.1246,6.1237,6.122,6.1213,6.1186,6.1151,6.1067,6.1053,6.107,6.1099,6.1129,6.1113,6.0787,6.1046,6.1044,6.1041,6.104,6.1039,6.1672,6.1699,6.1648,6.1645,6.1613,6.159,6.1607,6.1548,6.1546,6.1523,6.1463,6.1472,6.1424,6.138,6.1352,6.1358,6.1305,6.1331,6.1337,6.1345,6.1361,6.1129,6.1352,6.1352,6.1351,6.135,6.1349,0,6.1925,6.1885,6.1884,6.1848,6.1846,6.1766,6.1731,6.1735,6.1744,6.1707,6.1697,6.1696,6.1689,6.1618,6.1602,6.162,6.1581,6.1619,6.1617,6.161,6.1409,6.1395,6.1651,6.1651,6.1651,6.1651,6.1651,6.1651,6.2057,6.2099,6.2049,6.2074,6.2033,6.2041,6.2028,6.2006,6.1975,6.1979,6.1972,6.1925,6.1874,6.1853,6.1843,6.1822,6.1821,6.1873,6.1839,6.1653,6.1624,6.1596,6.1582,6.1874,6.1874,6.2039,6.204,6.2041]},{"header":{"parameterUnit":"m.s-1","parameterCategory":1,"la1":30.2991,"la2":30.254,"lo1":-89.0895,"lo2":-89.0444,"dy":0.0017,"dx":0.0017,"nx":28,"ny":28,"refTime":"2023-04-28T21:00:00:Z","depth":0,"parameterNumber":3,"parameterNumberName":"V-component_of_WINDS"},"data":[0,0,0,0,0,0,0,0,0,0,0,0,0,0,0,0,0,0,0,0,0,0,0,0,0,0,0,0,0,0,0,0,0,0,0,0,0,0,0,0,0,0,0,0,0,0,0,0,0,0,0,0,0,0,0,0,0,0,-2.5406,-2.5408,0,-2.5549,-2.5551,-2.5552,-2.5536,-2.5534,-2.5531,-2.5529,-2.5679,-2.5685,-2.5691,0,0,0,0,0,0,0,0,0,0,0,0,0,-2.5124,-2.5129,-2.5406,-2.5408,-2.541,-2.5549,-2.5551,-2.5553,-2.5536,-2.5534,-2.5531,-2.5528,-2.5677,-2.5685,-2.5692,0,0,0,0,0,0,0,0,0,0,0,0,0,-2.5255,-2.5131,-2.5406,-2.5418,-2.5421,-2.5548,-2.5551,-2.5553,-2.5537,-2.5533,-2.553,-2.5527,-2.5675,-2.5684,-2.5693,-2.5819,0,0,-2.5721,-2.5725,0,0,0,0,0,0,0,0,-2.5248,-2.5265,-2.5414,-2.5417,-2.542,-2.5521,-2.5506,-2.5642,-2.5538,-2.5493,-2.5529,-2.5525,-2.563,-2.5642,-2.5677,-2.5826,-2.5832,-2.5722,-2.5728,-2.5732,-2.5734,0,0,0,0,0,0,0,-2.5239,-2.5259,-2.5463,-2.5417,-2.542,-2.5418,-2.5433,-2.5532,-2.5579,-2.5497,-2.5496,-2.5513,-2.5631,-2.5668,-2.568,-2.5834,-2.5722,-2.573,-2.5736,-2.5739,-2.6097,-2.6101,0,0,0,0,0,0,-2.5226,-2.5252,-2.5458,-2.5467,-2.5324,-2.5426,-2.5443,-2.5492,-2.5578,-2.5588,-2.5515,-2.5511,-2.5654,-2.567,-2.5686,-2.5841,-2.5731,-2.574,-2.5745,-2.6093,-2.6098,-2.6102,0,0,0,0,0,0,-2.522,-2.5244,-2.5452,-2.5359,-2.5385,-2.5435,-2.5491,-2.5497,-2.5534,-2.5592,-2.5601,-2.5545,-2.5652,-2.5673,-2.5786,-2.5846,-2.5744,-2.5753,-2.6089,-2.6095,-2.61,-2.6151,0,0,0,0,0,0,-2.5212,-2.5242,-2.5289,-2.536,-2.539,-2.5549,-2.5494,-2.5502,-2.555,-2.5546,-2.5622,-2.5631,-2.5651,-2.5773,-2.5795,-2.5857,-2.576,-2.6083,-2.6091,-2.6098,-2.6144,-2.6158,-2.6169,0,0,0,0,0,-2.5202,-2.5298,-2.5291,-2.5317,-2.545,-2.5553,-2.557,-2.559,-2.5554,-2.5603,-2.5641,-2.5629,-2.5835,-2.5784,-2.581,-2.5875,-2.608,-2.6089,-2.6098,-2.6138,-2.6155,-2.6169,0,0,0,0,0,0,-2.5233,-2.5307,-2.5301,-2.5423,-2.5481,-2.555,-2.5611,-2.5606,-2.5677,-2.5671,-2.5693,-2.5711,-2.5826,-2.5861,-2.5803,-2.6003,-2.5953,-2.5968,-2.5975,-2.5992,-2.6004,-2.5994,-2.5767,0,0,0,0,0,-2.5254,-2.533,-2.5391,-2.5492,-2.5522,-2.5562,-2.5607,-2.5617,-2.568,-2.5705,-2.575,-2.5813,-2.5892,-2.5943,-2.6019,-2.6149,-2.6167,-2.6206,-2.6219,-2.6229,-2.6242,-2.6316,-2.6335,-2.6132,-2.6132,-2.6132,0,0,-2.5298,-2.5348,-2.5395,-2.55,-2.5547,-2.5627,-2.5583,-2.5669,-2.5729,-2.5718,-2.5829,-2.5864,-2.5935,-2.6058,-2.6115,-2.6092,-2.6302,-2.624,-2.6248,-2.6256,-2.6327,-2.6347,-2.6364,-2.6138,-2.6137,-2.6136,0,0,-2.542,-2.5464,-2.5555,-2.5603,-2.5674,-2.57,-2.5722,-2.5792,-2.5815,-2.5926,-2.592,-2.5993,-2.6128,-2.618,-2.6223,-2.6367,-2.636,-2.6392,-2.6459,-2.6531,-2.6547,-2.6561,-2.6615,-2.6634,-2.6404,-2.6404,-2.6404,0,-2.5467,-2.5585,-2.5603,-2.569,-2.5738,-2.5731,-2.5825,-2.5871,-2.5963,-2.5998,-2.597,-2.6141,-2.6188,-2.6324,-2.636,-2.6395,-2.6423,-2.6383,-2.6543,-2.6557,-2.6571,-2.6623,-2.6643,-2.6407,-2.6407,-2.6407,-2.6406,0,-2.564,-2.5723,-2.5788,-2.5877,-2.5932,-2.6022,-2.6055,-2.6109,-2.6115,-2.6145,-2.626,-2.6316,-2.6405,-2.6437,-2.6444,-2.6576,-2.656,-2.6537,-2.6488,-2.6594,-2.6643,-2.6663,-2.6412,-2.6411,-2.641,-2.6409,0,0,-2.5785,-2.5884,-2.5908,-2.595,-2.6029,-2.6094,-2.6185,-2.627,-2.6318,-2.6382,-2.6461,-2.6576,-2.6557,-2.6607,-2.6619,-2.6682,-2.6796,-2.6652,-2.6655,-2.6679,-2.6949,-2.6967,-2.6989,-2.6791,-2.6795,-2.6798,-2.6943,0,-2.5917,-2.6076,-2.6096,-2.6238,-2.6317,-2.6312,-2.6392,-2.645,-2.6481,-2.6554,-2.6588,-2.667,-2.6637,-2.6667,-2.6729,-2.6769,-2.6851,-2.6758,-2.6867,-2.6871,-2.6851,-2.7014,-2.7033,-2.7168,-2.6962,-2.6966,-2.6968,0,-2.6091,-2.616,-2.6311,-2.6381,-2.6415,-2.6486,-2.6568,-2.6636,-2.6703,-2.6721,-2.6778,-2.6783,-2.688,-2.6826,-2.6961,-2.6898,-2.6943,-2.697,-2.6976,-2.6988,-2.6927,-2.7034,-2.7211,-2.7232,-2.6998,-2.6996,-2.6993,0,-2.6185,-2.6316,-2.6424,-2.6459,-2.6543,-2.6594,-2.6632,-2.6695,-2.6746,-2.6818,-2.6852,-2.6934,-2.698,-2.7045,-2.7073,-2.7031,-2.7208,-2.7155,-2.7228,-2.7228,-2.7267,-2.7264,-2.7456,-2.7292,-2.7292,-2.7292,-2.7291,0,-2.633,-2.6423,-2.6467,-2.6534,-2.6639,-2.6661,-2.6765,-2.6801,-2.6858,-2.6933,-2.6934,-2.7005,-2.7037,-2.7114,-2.7136,-2.7247,-2.7267,-2.7286,-2.7291,-2.7287,-2.7285,-2.7319,-2.7311,-2.7297,-2.7296,-2.7295,-2.7294,0,-2.6453,-2.6486,-2.6604,-2.6674,-2.6694,-2.6769,-2.683,-2.6896,-2.6926,-2.7022,-2.7045,-2.7094,-2.7184,-2.7218,-2.7328,-2.7344,-2.7472,-2.7469,-2.745,-2.7452,-2.7523,-2.7517,-2.7746,-2.7778,-2.759,-2.7592,-2.7594,0,-2.6545,-2.6616,-2.6695,-2.6745,-2.6784,-2.6865,-2.6917,-2.6943,-2.6998,-2.7081,-2.7138,-2.7227,-2.7301,-2.7446,-2.7493,-2.7578,-2.7578,-2.7652,-2.7591,-2.7586,-2.7583,-2.7579,-2.7588,-2.7664,-2.7666,-2.7668,-2.7669,0,-2.6705,-2.6718,-2.6793,-2.6875,-2.6937,-2.7003,-2.7067,-2.7108,-2.7144,-2.7206,-2.7299,-2.7356,-2.7469,-2.7559,-2.7647,-2.7688,-2.7687,-2.7688,-2.771,-2.7707,-2.7694,-2.7705,-2.7483,-2.7683,-2.7681,-2.768,-2.7679,-2.7679,-2.6817,-2.6881,-2.6947,-2.7032,-2.7082,-2.7143,-2.7209,-2.7248,-2.7325,-2.7419,-2.7429,-2.7529,-2.7598,-2.7716,-2.7761,-2.7841,-2.7821,-2.7852,-2.786,-2.7868,-2.7875,-2.768,-2.7857,-2.7856,-2.7856,-2.7856,-2.7855,0,-2.698,-2.7022,-2.7099,-2.7189,-2.7256,-2.7246,-2.7317,-2.7375,-2.7463,-2.7526,-2.7598,-2.7706,-2.7795,-2.7848,-2.7938,-2.7992,-2.7994,-2.8015,-2.8012,-2.8023,-2.7886,-2.7859,-2.8012,-2.8012,-2.8012,-2.8012,-2.8012,-2.8012,-2.7072,-2.7182,-2.7203,-2.7339,-2.7381,-2.7479,-2.7521,-2.7577,-2.7628,-2.7748,-2.7822,-2.7856,-2.7916,-2.8011,-2.8092,-2.8106,-2.814,-2.8164,-2.8176,-2.8048,-2.8032,-2.8016,-2.7992,-2.817,-2.817,-2.8307,-2.8308,-2.8309]}]]